Regional Weather Roundup
Issued by NWS

Home | Current Version | Previous Version | Text Only | Print | Product List | Glossary On
Versions: 1 2 3 4 5 6 7 8 9 10 11 12 13 14 15 16 17 18 19 20 21 22 23 24 25 26 27 28 29 30 31 32 33 34 35 36 37 38 39 40 41 42 43 44 45 46 47 48 49 50
000
ASUS45 KBOU 300507
RWRCO

WEATHER ROUNDUP FOR COLORADO
NATIONAL WEATHER SERVICE DENVER/BOULDER CO
1000 PM MST THU JAN 29 2015

NOTE: "FAIR" INDICATES FEW OR NO CLOUDS BELOW 12000 FEET WITH NO
SIGNIFICANT WEATHER AND/OR OBSTRUCTIONS TO VISIBILITY.

COZ001>005-013-030-031-300600-
...NORTHWEST COLORADO...

CITY           SKY/WX    TMP DP  RH WIND       PRES   REMARKS
CRAIG          CLOUDY    29  27  92 CALM      30.30F
HAYDEN         CLOUDY    30  25  80 SE5       30.30S WCI  25
MEEKER         CLOUDY    30  25  81 CALM      30.30S
MOUNT WERNER   NOT AVBL
STEAMBOAT SPGS CLOUDY    31  24  76 CALM      30.31S
WALDEN         CLOUDY    25  19  80 SE5       30.32F WCI  19
$$

COZ006>008-011-300600-
...WEST CENTRAL VALLEYS...

CITY           SKY/WX    TMP DP  RH WIND       PRES   REMARKS
GRAND JUNCTION CLOUDY    43  31  62 SE9       30.28S
MONTROSE       CLOUDY    40  28  62 SE3       30.32S
EAGLE          CLEAR     34  27  75 CALM      30.33S
RIFLE          CLOUDY    38  27  64 CALM      30.30R
DELTA          CLOUDY    46  31  55 N6        30.30S
NUCLA          CLOUDY    41  32  70 E8        30.32F
$$

COZ017>023-064>068-300600-
...SOUTHWEST COLORADO...

CITY           SKY/WX    TMP DP  RH WIND       PRES   REMARKS
DURANGO        LGT RAIN  38  33  82 E6        30.36S
CORTEZ         CLOUDY    44  34  67 NE3       30.32R
PAGOSA SPRINGS FLURRIES  36  33  90 CALM      30.38F
TELLURIDE      CLOUDY    34  29  82 E3        30.35F
WOLF CREEK PAS NOT AVBL
$$

COZ009-010-012-014-032>034-037-058>063-300600-
...CENTRAL COLORADO...

CITY           SKY/WX    TMP DP  RH WIND       PRES   REMARKS
ASPEN          CLOUDY    32  22  66 S5        30.31S WCI  27
BUENA VISTA    CLOUDY    30  23  74 CALM      30.40F
COPPER MTN     CLOUDY    28  14  54 S9        30.40S WCI  20
BERTHOUD PASS  MOCLDY    19  14  79 NW12      30.40F WCI   7
COTTONWOOD PAS CLOUDY    28  23  80 CALM      30.40S
GUNNISON       MOCLDY    25  19  80 CALM      30.39S
KREMMLING      CLOUDY    27  23  86 CALM      30.35S
LEADVILLE      CLOUDY    22  20  92 CALM      30.38F
MONARCH PASS     N/A     23  21  93 MISG      30.51F
SALIDA         CLOUDY    33  23  66 S3        30.48S
SUNLIGHT       CLOUDY    30  25  80 CALM        N/A
WILKERSON PASS CLOUDY    21  19  93 SW10G17   30.40F FOG     WCI  10
$$

COZ069>075-300600-
...SAN LUIS VALLEY/SANGRE DE CRISTO MOUNTAINS...

CITY           SKY/WX    TMP DP  RH WIND       PRES   REMARKS
ALAMOSA        CLOUDY    34  23  64 SE7       30.38S WCI  28
LA VETA PASS   CLOUDY    27  23  86 S7        30.41S WCI  19
SAGUACHE       LGT SNOW  32  32 100 CALM      30.40S
$$

COZ035-036-038>040-300600-
...NORTHERN COLORADO FRONT RANGE...

CITY           SKY/WX    TMP DP  RH WIND       PRES   REMARKS
DENVER INTL AP CLOUDY    36  25  64 S13       30.33F
DMNS CITY PARK   N/A     40  22  48 S3        30.33F
AURORA         CLOUDY    38  23  54 S18       30.33F
FRONT RANGE AP NOT AVBL
ERIE MUNI ARPT CLOUDY    31  26  83 CALM      30.33F
BOULDER MUN AP CLOUDY    36  27  69 CALM      30.33F
CENTENNIAL     CLOUDY    37  23  56 S18       30.33F
BROOMFIELD     PTCLDY    36  27  69 CALM      30.33F
FORT COLLINS   CLOUDY    34  21  60 N7        30.35F WCI  28
LONGMONT       CLOUDY    34  27  74 CALM      30.35F
$$

COZ041-046-047-076>085-087-088-300600-
...PIKES PEAK/PALMER DIVIDE AND SOUTHERN FOOTHILLS...

CITY           SKY/WX    TMP DP  RH WIND       PRES   REMARKS
COLO. SPRINGS  CLOUDY    33  23  66 S10       30.41F WCI  25
A. F. ACADEMY  MOCLDY    33  20  58 SE10      30.39F WCI  25
ELLICOTT       CLOUDY   N/A N/A N/A S10       30.41F
FALCON         CLOUDY    30  22  73 S8        30.41F WCI  22
FORT CARSON    CLOUDY    35  22  59 SW7       30.40F WCI  29
LIMON          CLOUDY    26  20  77 SE6       30.41F WCI  19
MONUMENT HILL  CLOUDY    30  21  69 S14G22    30.37S WCI  20
TRINIDAD       CLOUDY    36  26  67 NE5       30.41F
$$

COZ042>045-048>051-090-091-300600-
...NORTHEAST COLORADO...

CITY           SKY/WX    TMP DP  RH WIND       PRES   REMARKS
GREELEY ARPT   CLOUDY    34  21  60 SE10      30.33F WCI  26
AKRON          MOCLDY    33  16  49 S14       30.40F WCI  23
BURLINGTON     MOCLDY    31  20  63 S12       30.45S WCI  22
WRAY           PTCLDY    32  22  66 SE3       30.44F
STERLING       MOCLDY    30  19  64 S7        30.39F WCI  23
HOLYOKE        NOT AVBL
FORT MORGAN    MOCLDY    32  22  66 SE7       30.39F WCI  26
$$

COZ086-089-092>099-300600-
...SOUTHEAST COLORADO...

CITY           SKY/WX    TMP DP  RH WIND       PRES   REMARKS
PUEBLO         CLOUDY    35  24  64 NE7       30.41F WCI  29
LA JUNTA       CLOUDY    41  24  51 S7        30.43F
LAMAR          MOCLDY    38  21  50 S13       30.45S
SPRINGFIELD      N/A     32  23  69 S7        30.47F WCI  26
$$


USA.gov is the U.S. government's official web portal to all federal, state and local government web resources and services.